Weather Roundup
Issued by NWS

Home | Current Version | Previous Version | Graphics & Text | Print | Product List | Glossary Off
Versions: 1 2 3 4 5 6 7 8 9 10 11 12 13 14 15 16 17 18 19 20 21 22 23 24 25 26 27 28 29 30 31 32 33 34 35 36 37 38 39 40 41 42 43 44 45 46 47 48 49 50

503
NZUS93 KARX 272210
HRRWXR

CURRENT HOURLY OBSERVATIONS ACROSS
MUCH OF THE UPPER MISSISSIPPI VALLEY
NATIONAL WEATHER SERVICE LA CROSSE WI
500 PM CDT TUE JUN 27 2017


...SOUTHEAST MINNESOTA...


CITY           SKY/WX    TMP DP  RH WIND       PRES   REMARKS
ROCHESTER      MOSUNNY   74  43  32 S17G26    29.97F
ROCHESTER/MAYO FAIR      74  41  30 S12G20    29.96F
WINONA         MOSUNNY   73  45  35 S3        29.97F
AUSTIN         SUNNY     72  45  37 S13       29.95F
ALBERT LEA     MOSUNNY   73  39  29 S9G21     29.95F
DODGE CENTER   MOSUNNY   73  39  29 S17       29.95F
PRESTON        SUNNY     73  44  35 SW9       29.99F
OWATONNA       CLOUDY    75  45  33 S16G22    29.94F
FARIBAULT      CLOUDY    75  43  31 S14G21    29.93F
$$

...ELSEWHERE IN MINNESOTA...


CITY           SKY/WX    TMP DP  RH WIND       PRES   REMARKS
MINNEAPOLIS    CLOUDY    77  40  26 S18G24    29.91F
INTNL FALLS    CLOUDY    72  46  39 S7        29.80F
DULUTH         SUNNY     72  44  36 SW14G25   29.88F
RED WING       PTSUNNY   75  39  27 S7G16     29.92F
REDWOOD FALLS  CLOUDY    78  41  26 S21       29.82F
MANKATO        CLOUDY    75  44  33 S15       29.91F
WORTHINGTON    SUNNY     76  45  33 S16G23    29.85F
FAIRMONT       SUNNY     77  46  33 S17G25    29.90F
$$

...SOUTHWEST WISCONSIN...


CITY           SKY/WX    TMP DP  RH WIND       PRES   REMARKS
LA CROSSE      MOSUNNY   80  46  30 SE13      29.97F
PRAIRIE DU CHI CLOUDY    74  41  30 S6        30.00F
BOSCOBEL       SUNNY     75  46  35 SW7       30.01F
LONE ROCK      SUNNY     76  46  34 SW6       30.02F
PLATTEVILLE    SUNNY     74  47  37 SW10      30.04F
FORT MC COY    SUNNY     74  47  38 SW3G16    30.00F
CAMP DOUGLAS   PTSUNNY   73  48  40 SW6       30.00F
MAUSTON-NEW LI PTCLDY    74  48  40 SW7       30.00F
VIROQUA        FAIR      73  46  38 S9        30.02F
WIS DELLS      SUNNY     74  46  36 SW10      30.02F
$$

...ELSEWHERE IN WISCONSIN...


CITY           SKY/WX    TMP DP  RH WIND       PRES   REMARKS
MILWAUKEE      MOSUNNY   74  46  36 W7G18     30.03F
MADISON        PTSUNNY   73  46  38 W7        30.02F
GREEN BAY      PTSUNNY   74  51  44 SW7       29.98F
EAU CLAIRE     SUNNY     75  44  33 SW14G21   29.95F
BLACK RVR FLS  FAIR      77  43  30 SW8       29.98F
MEDFORD        MOSUNNY   71  47  42 SW8       29.98F
WAUSAU         MOSUNNY   71  48  43 SW7       29.97F
WIS RAPIDS     MOSUNNY   74  49  41 SW10      30.01F
MARSHFIELD     SUNNY     73  47  39 SW12      29.98F
RICE LAKE      SUNNY     74  42  31 S12       29.95F
$$

...NORTHEAST IOWA...


CITY           SKY/WX    TMP DP  RH WIND       PRES   REMARKS
WATERLOO       SUNNY     76  41  28 S14       29.98F
DUBUQUE        SUNNY     73  46  38 SW12      30.04F
DECORAH        MOSUNNY   73  45  35 VRB7      29.99F
MASON CITY     SUNNY     76  44  32 S15       29.97F
CHARLES CITY   SUNNY     75  39  27 S14       29.98F
OELWEIN        SUNNY     75  45  33 S13       30.01F
$$

...ELSEWHERE IN IOWA...


CITY           SKY/WX    TMP DP  RH WIND       PRES   REMARKS
DES MOINES     PTSUNNY   80  51  36 SE15      29.95F
IOWA CITY      MOSUNNY   78  44  29 S10       30.03F
FORT DODGE     SUNNY     79  48  34 S10G23    29.95F
MARSHALLTOWN   SUNNY     76  47  35 S13       29.97F
CEDAR RAPIDS   SUNNY     75  46  35 SE10G20   30.01F
$$

...NORTHERN ILLINOIS...


CITY           SKY/WX    TMP DP  RH WIND       PRES   REMARKS
CHICAGO-OHARE  PTSUNNY   77  44  30 W5        30.05F
CHICAGO-MIDWAY MOSUNNY   76  47  35 N5        30.05F
MOLINE         SUNNY     76  46  34 SW10      30.04F
ROCKFORD       PTSUNNY   76  46  34 W7        30.06F
PEORIA         SUNNY     76  43  30 S6        30.06F
$$

NOTE: "FAIR" INDICATES FEW OR NO CLOUDS BELOW 12,000 FEET WITH NO
SIGNIFICANT WEATHER AND/OR OBSTRUCTIONS TO VISIBILITY. WIND
SPEEDS ARE IN MILES-PER-HOUR.




USA.gov is the U.S. government's official web portal to all federal, state and local government web resources and services.